Temperature
-1 -1 -1 -1 -1 -2 -2 -2 -2 -2 -2 -2 -2 -2 -2 -2 -2 -2 -2 -2 -2 -2 -3 -3 -3 -3 -2 -2 -2 -2 -3 -3 -3 -3 -2 -1 -1 -0 0 0 0 1 1
-1 -2 -2 -2 -2 -2 -2 -2 -2 -2 -2 -2 -3 -3 -3 -3 -3 -3 -3 -3 -3 -3 -3 -3 -3 -3 -3 -3 -3 -3 -3 -3 -3 -3 -2 -2 -1 -1 -1 -0 -0 -0 0
-2 -2 -2 -2 -2 -2 -2 -3 -3 -3 -3 -3 -3 -3 -3 -3 -3 -4 -4 -4 -4 -4 -4 -4 -4 -4 -4 -4 -4 -4 -4 -4 -4 -4 -3 -3 -2 -2 -1 -1 -1 -0 -0
-2 -2 -2 -3 -3 -3 -3 -3 -3 -3 -3 -4 -4 -4 -4 -4 -4 -4 -4 -4 -4 -4 -5 -5 -5 -5 -5 -5 -4 -4 -4 -4 -4 -4 -4 -3 -3 -3 -2 -2 -2 -1 -1
-3 -3 -3 -3 -3 -3 -4 -4 -4 -4 -4 -4 -4 -4 -4 -4 -4 -5 -5 -5 -5 -5 -5 -5 -5 -5 -5 -5 -5 -5 -5 -5 -5 -5 -4 -4 -3 -3 -3 -3 -3 -2 -2
-3 -3 -3 -4 -4 -4 -4 -4 -4 -4 -4 -5 -5 -5 -5 -5 -5 -5 -5 -5 -5 -5 -5 -5 -5 -5 -5 -6 -6 -6 -6 -5 -5 -5 -5 -5 -4 -4 -4 -4 -4 -4 -3
-4 -4 -4 -4 -4 -4 -5 -5 -5 -5 -5 -5 -5 -5 -5 -5 -5 -6 -6 -6 -6 -6 -6 -6 -6 -6 -6 -6 -6 -6 -6 -6 -5 -5 -5 -5 -5 -4 -5 -4 -4 -4 -4
-4 -4 -4 -5 -5 -5 -5 -5 -5 -6 -6 -6 -6 -6 -6 -6 -6 -6 -6 -6 -6 -6 -6 -6 -6 -6 -6 -6 -6 -6 -6 -6 -5 -5 -5 -5 -5 -5 -5 -5 -5 -4 -4
-4 -5 -5 -5 -5 -5 -6 -6 -6 -6 -6 -6 -6 -6 -6 -6 -6 -7 -7 -7 -7 -6 -6 -6 -6 -7 -6 -7 -7 -6 -6 -6 -6 -6 -6 -6 -5 -5 -5 -5 -5 -5 -5
-5 -5 -5 -6 -6 -6 -6 -6 -7 -7 -7 -7 -7 -7 -7 -7 -7 -7 -7 -7 -7 -7 -7 -7 -7 -7 -7 -7 -7 -7 -7 -6 -6 -6 -6 -6 -6 -6 -5 -6 -5 -5 -5
-6 -6 -6 -6 -6 -7 -7 -7 -7 -7 -7 -7 -7 -7 -7 -7 -8 -8 -8 -8 -8 -8 -7 -7 -7 -7 -7 -7 -7 -7 -7 -7 -7 -7 -7 -6 -6 -6 -6 -6 -6 -6 -6
-6 -7 -7 -7 -7 -7 -7 -7 -8 -8 -8 -8 -8 -8 -8 -8 -8 -8 -8 -8 -8 -8 -8 -8 -8 -8 -8 -8 -7 -7 -7 -7 -7 -7 -7 -7 -7 -7 -7 -6 -6 -6 -6
-7 -7 -7 -8 -8 -8 -8 -8 -8 -8 -8 -8 -9 -9 -8 -8 -8 -8 -8 -8 -9 -9 -8 -8 -8 -8 -8 -8 -8 -8 -8 -8 -8 -8 -8 -8 -7 -7 -7 -7 -7 -7 -6
-8 -8 -8 -8 -8 -8 -9 -9 -9 -9 -9 -9 -9 -9 -9 -9 -9 -9 -9 -9 -9 -9 -9 -9 -9 -9 -9 -9 -9 -8 -8 -8 -8 -8 -8 -8 -8 -8 -8 -8 -8 -7 -7
-8 -9 -9 -9 -9 -9 -9 -9 -10 -10 -10 -10 -10 -10 -10 -10 -10 -10 -10 -10 -9 -9 -9 -9 -9 -9 -9 -9 -9 -9 -9 -9 -9 -9 -9 -9 -9 -9 -8 -8 -8 -8 -8
-9 -9 -9 -10 -10 -10 -10 -10 -10 -10 -10 -10 -10 -10 -11 -10 -10 -10 -10 -10 -10 -10 -10 -10 -10 -10 -10 -10 -10 -10 -9 -9 -9 -9 -9 -9 -9 -9 -9 -9 -9 -9 -9
-10 -10 -10 -10 -10 -11 -11 -11 -10 -10 -10 -10 -11 -11 -11 -11 -11 -11 -11 -11 -11 -11 -11 -11 -11 -11 -11 -11 -11 -10 -10 -10 -10 -10 -10 -10 -10 -9 -9 -9 -9 -9 -9
-10 -10 -10 -11 -11 -11 -11 -11 -11 -11 -11 -11 -11 -11 -11 -11 -11 -11 -11 -11 -11 -11 -11 -12 -12 -12 -12 -11 -11 -11 -11 -11 -10 -10 -10 -10 -10 -10 -10 -10 -10 -9 -9
-11 -11 -11 -11 -11 -12 -12 -12 -12 -12 -12 -12 -12 -12 -12 -12 -12 -12 -12 -12 -12 -12 -12 -12 -12 -12 -12 -12 -12 -12 -11 -11 -11 -11 -11 -11 -10 -10 -10 -10 -10 -10 -10
-11 -12 -12 -12 -12 -12 -12 -12 -12 -12 -13 -13 -13 -12 -12 -12 -12 -12 -12 -12 -12 -13 -13 -13 -13 -13 -13 -12 -12 -12 -12 -12 -12 -11 -11 -11 -11 -11 -11 -10 -10 -10 -10
-12 -12 -12 -12 -12 -13 -13 -13 -13 -13 -13 -13 -13 -13 -13 -13 -13 -13 -13 -13 -13 -13 -13 -13 -13 -13 -13 -13 -13 -13 -12 -12 -12 -12 -12 -11 -11 -11 -11 -11 -11 -11 -11
-12 -13 -13 -13 -13 -13 -13 -13 -13 -13 -13 -13 -13 -13 -13 -13 -13 -13 -13 -13 -13 -13 -13 -13 -13 -13 -13 -13 -13 -13 -13 -13 -12 -12 -12 -12 -12 -11 -11 -11 -11 -11 -11
-13 -13 -13 -13 -13 -13 -13 -13 -14 -14 -14 -14 -14 -14 -14 -14 -14 -14 -14 -14 -14 -14 -14 -14 -13 -13 -13 -13 -13 -13 -13 -13 -13 -12 -12 -12 -12 -12 -12 -12 -11 -11 -11
-14 -14 -14 -14 -14 -14 -14 -14 -14 -14 -14 -14 -14 -14 -14 -14 -14 -14 -14 -14 -14 -14 -14 -14 -14 -14 -13 -13 -13 -13 -13 -13 -13 -13 -13 -12 -12 -12 -12 -12 -12 -12 -11
-14 -14 -14 -14 -14 -14 -14 -14 -14 -14 -14 -14 -14 -14 -14 -14 -14 -14 -14 -14 -14 -14 -14 -14 -14 -14 -13 -13 -13 -13 -13 -13 -13 -13 -13 -13 -13 -12 -12 -12 -12 -12 -12
-14 -14 -14 -14 -14 -14 -15 -15 -15 -15 -15 -15 -15 -15 -15 -14 -14 -14 -14 -14 -14 -14 -14 -14 -14 -14 -14 -13 -13 -13 -13 -13 -13 -13 -13 -13 -13 -13 -12 -12 -12 -12 -12
Wind_Speed
3 2 2 2 2 2 2 3 2 2 2 2 2 2 2 2 2 2 3 3 3 4 4 4 5 5 4 4 4 4 5 5 8 8 6 6 7 7 9 10 11 10 10
3 2 2 2 2 2 3 3 3 2 2 3 3 3 3 3 3 3 4 4 4 5 5 5 6 5 5 5 4 5 5 6 7 10 8 6 8 7 7 7 9 10 10
3 2 1 1 2 3 3 2 2 2 2 3 3 3 4 4 4 4 5 5 6 6 6 6 6 6 6 6 6 6 6 6 6 7 8 7 7 6 7 7 7 7 9
2 2 2 2 3 3 2 2 2 2 2 3 3 4 4 4 5 5 6 6 6 7 7 7 7 7 7 7 7 7 6 6 6 7 7 7 6 6 5 6 7 5 6
2 2 2 2 2 2 2 2 2 2 2 3 3 4 4 4 5 6 6 7 7 7 7 7 8 9 11 9 8 6 6 6 6 7 7 7 7 6 6 5 7 6 6
2 2 1 1 1 1 1 1 1 2 2 3 3 4 5 5 9 11 9 6 5 6 6 6 7 9 11 13 14 13 11 9 7 7 7 8 8 7 6 7 7 7 6
1 1 1 1 1 1 1 1 2 2 2 3 4 4 5 7 11 12 12 6 4 5 6 6 7 7 10 7 11 14 13 15 13 9 9 9 9 7 7 8 8 8 8
1 1 1 1 1 1 1 2 2 2 3 3 4 5 5 7 11 12 12 5 4 5 6 7 7 8 9 9 8 8 8 9 10 8 8 9 8 7 8 9 9 8 7
1 1 1 1 1 1 2 2 3 3 3 4 4 4 5 7 11 12 11 4 5 6 7 7 8 8 13 14 9 8 9 8 11 13 13 13 13 13 10 6 6 6 7
1 1 1 1 2 2 2 3 3 3 3 4 5 4 5 6 10 11 11 4 5 5 6 7 10 11 13 13 8 7 8 8 7 8 9 10 10 9 10 6 6 6 6
2 1 1 1 1 2 2 2 2 2 3 3 5 5 5 7 9 11 11 5 5 6 6 5 6 12 13 13 11 6 9 8 6 6 6 6 5 5 5 5 5 6 6
1 1 1 2 2 2 1 2 2 2 3 3 4 5 4 5 8 9 11 11 9 6 6 6 7 13 13 13 9 9 11 8 4 4 5 5 5 5 5 5 6 7 7
1 2 2 2 2 2 1 2 2 2 2 3 3 4 5 5 6 11 12 12 12 7 6 10 11 12 11 8 9 9 8 4 3 4 5 5 4 4 4 4 5 5 6
1 1 2 2 2 2 2 2 2 2 3 3 4 4 5 5 5 5 5 6 8 7 6 8 10 10 8 8 7 6 4 4 4 4 5 5 4 4 4 4 4 4 4
1 1 2 2 2 2 3 2 3 3 3 4 3 4 4 5 7 10 8 5 4 5 5 4 3 4 4 4 4 4 4 4 4 4 4 4 4 4 4 4 3 3 4
1 2 2 2 2 2 3 4 6 6 8 8 8 7 6 9 12 12 11 10 10 9 5 3 4 4 4 5 5 5 4 4 4 4 4 4 4 4 5 4 4 4 4
1 2 2 2 2 3 3 3 4 6 8 9 10 10 10 11 11 11 11 10 9 8 4 4 4 4 4 5 5 5 5 5 4 4 4 4 4 4 4 4 4 4 4
1 2 2 2 2 2 3 3 3 4 5 5 8 11 12 12 11 11 10 8 5 5 4 4 4 5 5 5 5 5 5 5 5 4 4 4 4 4 4 4 4 4 4
1 1 2 2 2 2 3 3 3 4 4 5 5 7 11 11 11 10 9 4 4 4 4 4 4 4 5 5 5 5 5 5 5 4 4 4 4 4 4 4 4 6 5
2 3 3 2 2 3 3 3 3 4 4 4 5 5 6 6 5 6 5 4 4 4 4 5 5 5 5 5 5 5 5 5 5 4 5 4 4 4 4 5 5 4 4
2 3 4 3 3 3 3 4 4 4 4 5 5 7 9 5 5 5 5 4 4 5 5 5 5 5 5 5 4 5 5 5 5 4 5 4 4 4 4 5 5 4 4
2 2 2 3 3 3 4 3 4 4 5 5 5 7 10 6 4 4 5 5 5 5 5 5 5 5 5 4 5 5 5 5 5 5 5 5 4 5 4 4 4 4 4
2 2 3 3 3 5 5 4 4 4 5 5 5 5 5 5 5 5 5 5 5 6 6 6 6 6 6 6 6 5 5 6 6 5 5 5 5 5 4 5 5 5 5
1 2 3 3 3 3 4 4 4 5 5 5 5 5 5 5 6 6 6 6 6 6 7 7 7 8 9 8 7 7 8 8 8 7 6 5 5 5 5 5 5 5 5
1 2 3 3 3 4 4 4 4 5 5 5 5 5 6 6 6 6 6 6 7 7 8 8 8 8 9 10 10 9 11 12 11 8 7 5 6 6 5 5 5 5 5
2 2 3 3 3 4 4 4 5 5 5 5 5 6 6 6 6 6 6 6 7 7 8 8 9 10 11 11 11 12 13 13 12 12 8 5 5 5 5 5 6 5 5
Wind_Direction
182 187 186 204 205 204 213 226 230 241 247 251 261 268 270 278 273 271 273 276 276 279 281 281 281 282 283 279 275 271 264 262 274 286 286 290 290 289 292 292 289 286 285
181 177 191 206 208 211 225 234 234 240 251 256 260 266 267 274 274 268 273 275 269 272 273 274 278 283 283 280 273 271 268 260 267 283 288 291 286 283 282 283 290 291 288
176 178 197 213 223 227 232 238 238 241 253 263 262 266 266 269 269 266 262 264 261 262 263 263 268 272 275 275 272 271 272 274 268 276 285 288 287 285 284 287 286 287 288
182 187 207 222 231 240 238 238 242 240 249 257 262 267 264 268 269 266 262 261 261 260 258 258 261 262 265 270 271 267 270 274 275 276 281 287 288 287 283 287 291 289 290
183 198 219 232 237 242 243 250 255 253 261 265 272 278 275 271 264 261 260 260 258 260 259 260 262 267 270 273 276 270 267 270 275 277 277 286 287 293 290 292 290 295 290
186 209 226 225 241 251 258 261 267 273 278 283 280 280 280 283 287 288 285 267 260 261 265 267 268 272 276 281 283 283 279 272 272 272 277 275 280 282 284 287 289 294 292
183 201 213 210 235 257 268 271 272 276 283 282 282 279 278 284 292 293 293 289 267 264 266 270 277 277 282 275 279 282 280 278 275 273 272 270 274 274 277 281 279 278 279
186 209 224 232 254 265 266 273 283 286 278 277 278 275 279 288 296 297 300 296 276 270 266 263 268 272 272 274 271 273 270 271 272 272 265 268 271 270 266 270 272 280 284
224 248 256 252 256 260 263 271 284 286 283 280 280 276 281 292 299 301 302 288 280 276 274 269 269 267 276 281 278 276 279 279 283 281 282 284 285 286 287 284 280 280 284
272 278 274 263 247 250 257 266 281 280 283 288 292 286 282 286 296 302 306 295 292 289 283 277 280 282 286 287 276 269 275 279 283 288 288 288 286 286 284 275 267 266 278
312 317 312 296 275 262 264 273 276 286 293 292 294 293 284 287 297 303 306 302 291 292 293 290 283 290 291 292 289 272 278 286 280 279 282 284 284 282 281 281 276 266 264
353 344 332 321 305 305 297 299 291 279 286 287 294 299 291 290 298 301 305 305 304 293 293 292 289 294 296 297 295 289 289 292 286 283 284 284 286 287 287 284 282 280 272
13 352 338 333 328 324 303 295 299 288 284 292 293 299 305 303 300 304 306 308 309 304 295 299 302 304 306 305 304 301 299 288 284 283 284 286 289 287 290 294 301 297 295
5 336 328 334 332 330 322 304 295 287 286 291 294 298 304 308 307 305 302 302 304 305 305 305 310 314 314 310 310 310 304 291 287 283 289 294 300 298 295 301 302 306 305
348 331 332 332 328 326 321 308 305 283 283 293 292 295 304 304 307 315 319 314 311 306 315 317 321 324 325 322 314 312 311 308 302 299 296 300 305 305 304 307 301 302 299
347 337 330 328 326 326 326 326 323 325 322 322 320 313 307 310 315 320 322 323 324 326 327 328 324 319 316 318 318 317 314 314 310 303 298 297 298 297 300 304 302 298 294
274 305 306 319 322 321 321 324 324 327 328 331 331 328 324 323 324 325 326 328 331 336 336 328 319 316 315 315 314 314 313 311 308 304 302 300 298 295 293 296 298 295 292
297 302 314 302 305 307 307 308 310 314 322 325 329 330 330 330 330 329 329 334 336 339 329 319 314 312 313 312 312 312 310 312 312 309 307 302 298 296 293 291 291 291 293
314 305 304 300 303 304 304 307 308 308 310 313 319 326 331 332 333 336 339 341 325 320 319 316 312 310 310 308 306 308 308 308 310 308 304 302 299 295 292 290 289 294 300
309 312 321 312 310 311 309 307 308 308 307 309 312 316 323 327 329 332 335 327 319 313 312 311 311 309 308 306 305 304 304 305 307 307 305 304 300 294 290 291 289 289 290
304 304 316 316 304 303 303 301 301 302 302 303 304 310 320 322 318 317 319 319 315 311 308 306 304 303 301 299 297 298 298 297 297 298 300 301 300 299 297 294 290 285 284
291 295 296 294 298 299 300 298 298 297 298 300 303 310 321 326 318 314 313 313 311 308 305 303 300 296 293 293 293 292 290 291 292 291 292 294 294 292 293 294 292 290 284
279 287 296 299 299 300 309 305 302 299 297 298 301 306 312 312 310 309 308 308 308 305 302 300 298 297 293 290 287 280 280 282 282 280 282 287 288 287 288 289 288 288 283
282 286 291 296 298 295 295 296 297 298 297 297 299 302 303 303 303 304 304 304 303 300 300 299 294 294 294 295 292 287 283 284 285 276 268 270 276 279 279 282 284 283 280
308 297 295 292 293 292 293 295 296 298 301 301 300 301 301 301 301 301 302 302 299 297 297 298 296 294 294 293 293 291 290 291 292 287 273 264 268 268 270 273 277 280 277
305 296 291 290 288 288 289 290 292 295 297 299 301 301 299 299 299 298 299 300 300 299 297 297 295 295 295 295 294 294 294 294 292 291 286 269 266 268 268 267 270 271 271
Height
1497 1498 1498 1499 1499 1499 1499 1499 1498 1498 1497 1496 1495 1494 1494 1493 1492 1491 1490 1490 1489 1488 1487 1486 1486 1485 1485 1484 1483 1482 1482 1480 1477 1473 1473 1471 1470 1469 1468 1467 1466 1465 1465
1493 1494 1494 1495 1495 1495 1495 1494 1494 1494 1493 1493 1492 1490 1490 1489 1488 1487 1486 1485 1484 1483 1482 1481 1481 1480 1479 1479 1478 1477 1476 1475 1473 1469 1467 1466 1465 1464 1462 1461 1460 1459 1459
1490 1490 1491 1491 1491 1491 1490 1490 1490 1489 1489 1488 1487 1486 1485 1484 1483 1483 1482 1480 1479 1478 1477 1476 1476 1475 1474 1473 1472 1471 1470 1469 1468 1465 1462 1461 1460 1459 1457 1455 1454 1453 1453
1486 1486 1486 1486 1487 1487 1486 1486 1486 1485 1484 1484 1483 1482 1481 1480 1479 1478 1477 1476 1474 1473 1473 1472 1471 1470 1469 1468 1467 1466 1465 1464 1462 1460 1457 1456 1454 1453 1452 1449 1447 1447 1447
1482 1482 1482 1483 1483 1483 1482 1482 1481 1481 1480 1479 1478 1477 1476 1475 1474 1473 1472 1471 1470 1468 1468 1467 1466 1465 1464 1463 1462 1461 1460 1458 1457 1455 1452 1450 1449 1448 1447 1445 1443 1441 1440
1478 1478 1479 1479 1479 1478 1478 1477 1477 1476 1476 1475 1474 1473 1472 1470 1469 1469 1468 1466 1465 1464 1462 1461 1460 1459 1458 1458 1457 1455 1455 1453 1451 1450 1448 1446 1444 1443 1442 1441 1439 1436 1434
1475 1475 1475 1475 1475 1474 1474 1473 1473 1472 1471 1470 1469 1468 1467 1466 1465 1464 1463 1462 1460 1458 1457 1456 1454 1454 1453 1452 1450 1449 1448 1447 1447 1445 1443 1441 1439 1438 1438 1436 1434 1432 1430
1471 1471 1471 1471 1471 1470 1470 1469 1469 1468 1467 1466 1465 1464 1463 1462 1461 1459 1458 1456 1454 1453 1451 1450 1449 1448 1447 1446 1444 1442 1441 1440 1440 1439 1437 1435 1434 1433 1433 1431 1429 1427 1425
1468 1467 1467 1467 1467 1466 1466 1466 1465 1464 1464 1463 1461 1460 1459 1457 1456 1455 1453 1451 1449 1447 1446 1445 1443 1442 1441 1440 1439 1437 1435 1434 1433 1432 1431 1430 1429 1428 1427 1426 1424 1422 1418
1464 1464 1464 1464 1463 1463 1463 1462 1462 1461 1460 1459 1457 1456 1454 1453 1451 1450 1449 1446 1444 1442 1440 1439 1438 1437 1436 1435 1433 1431 1429 1428 1427 1426 1425 1424 1422 1421 1421 1420 1419 1417 1414
1462 1462 1461 1461 1461 1460 1460 1459 1458 1457 1456 1455 1453 1452 1450 1449 1447 1446 1444 1442 1440 1438 1435 1434 1432 1431 1430 1429 1428 1426 1424 1423 1422 1420 1419 1417 1416 1415 1414 1414 1413 1412 1410
1460 1459 1459 1458 1458 1457 1456 1456 1455 1454 1452 1451 1449 1448 1446 1445 1443 1441 1440 1438 1436 1433 1431 1429 1427 1426 1425 1423 1422 1421 1420 1419 1417 1415 1414 1412 1410 1409 1408 1408 1407 1406 1405
1457 1457 1456 1456 1455 1454 1453 1452 1451 1450 1449 1447 1446 1444 1442 1441 1439 1438 1436 1434 1432 1429 1427 1425 1423 1421 1419 1418 1417 1416 1415 1413 1412 1410 1409 1407 1406 1405 1404 1403 1401 1400 1399
1455 1454 1454 1453 1452 1452 1451 1450 1448 1447 1446 1444 1443 1441 1439 1437 1435 1434 1431 1429 1427 1425 1423 1420 1418 1416 1414 1413 1412 1411 1410 1409 1408 1406 1405 1403 1402 1400 1399 1398 1396 1395 1393
1453 1452 1451 1451 1450 1449 1448 1447 1446 1444 1443 1442 1440 1438 1436 1434 1433 1431 1429 1426 1424 1422 1419 1417 1414 1412 1410 1409 1407 1406 1405 1404 1403 1402 1400 1399 1397 1396 1395 1394 1393 1391 1389
1451 1450 1449 1448 1448 1447 1445 1444 1443 1442 1440 1439 1437 1436 1433 1432 1430 1428 1425 1423 1421 1419 1416 1413 1411 1409 1407 1405 1404 1403 1402 1400 1399 1398 1397 1395 1394 1393 1391 1390 1389 1388 1386
1449 1448 1447 1446 1445 1444 1443 1441 1440 1439 1437 1436 1434 1432 1430 1428 1426 1424 1422 1420 1418 1415 1413 1410 1408 1406 1404 1403 1401 1400 1398 1397 1396 1395 1393 1392 1391 1389 1388 1386 1385 1384 1383
1447 1446 1446 1445 1444 1442 1441 1439 1438 1435 1433 1431 1430 1429 1427 1425 1423 1421 1418 1416 1413 1411 1409 1407 1405 1403 1402 1400 1398 1397 1395 1394 1393 1391 1390 1389 1388 1386 1384 1383 1382 1381 1379
1445 1444 1444 1443 1442 1440 1439 1437 1436 1434 1431 1429 1427 1425 1423 1421 1419 1417 1415 1412 1410 1408 1406 1404 1402 1401 1399 1397 1395 1394 1392 1391 1390 1388 1387 1386 1385 1383 1381 1380 1379 1377 1376
1443 1443 1442 1441 1439 1438 1436 1435 1433 1431 1429 1427 1424 1422 1420 1418 1415 1413 1411 1409 1407 1405 1403 1401 1399 1397 1396 1394 1392 1391 1389 1388 1386 1385 1384 1382 1381 1380 1378 1377 1375 1374 1373
1441 1440 1439 1438 1437 1436 1434 1432 1430 1428 1426 1424 1422 1420 1418 1416 1413 1411 1408 1406 1404 1402 1400 1398 1396 1394 1392 1390 1389 1387 1386 1384 1383 1382 1380 1379 1378 1376 1375 1374 1373 1372 1371
1439 1438 1437 1436 1434 1433 1431 1430 1428 1426 1423 1421 1419 1417 1415 1413 1410 1408 1406 1403 1401 1399 1397 1395 1393 1391 1389 1387 1385 1384 1382 1381 1379 1378 1377 1376 1374 1373 1372 1371 1370 1369 1368
1436 1435 1434 1433 1431 1430 1428 1427 1425 1423 1420 1418 1416 1413 1411 1409 1407 1405 1402 1400 1398 1396 1394 1391 1389 1387 1385 1384 1382 1380 1379 1377 1376 1375 1374 1372 1371 1370 1369 1367 1367 1366 1365
1434 1433 1431 1430 1428 1426 1425 1423 1421 1419 1417 1415 1412 1410 1408 1406 1403 1401 1399 1396 1394 1392 1390 1388 1385 1383 1382 1380 1378 1376 1375 1374 1372 1371 1370 1369 1368 1366 1365 1364 1363 1362 1361
1431 1429 1428 1426 1425 1423 1421 1420 1418 1416 1414 1411 1409 1407 1405 1402 1400 1397 1395 1393 1390 1388 1386 1384 1381 1379 1377 1376 1374 1372 1371 1370 1369 1368 1367 1365 1364 1363 1362 1361 1360 1359 1358
1427 1426 1424 1423 1421 1419 1418 1416 1414 1412 1410 1408 1405 1403 1401 1398 1396 1393 1391 1389 1386 1384 1381 1379 1377 1375 1373 1371 1369 1368 1367 1366 1364 1364 1363 1362 1360 1359 1358 1357 1356 1356 1355